FW9464 Weather Reports


time (UTC)temp
C
wind
direction
speed
KPH
gust
KPH
rain 1hr
cm
rain 24hr
cm
rain mn
cm
humidity
%
barometer
mb
20260504001843 27 334 4.8 6.4 0.00 0.00 0.00 41 1018.9
20260504001340 27 310 4.8 6.4 0.00 0.00 0.00 41 1019.1
20260504000837 27 141 4.8 6.4 0.00 0.00 0.00 42 1018.9
20260504000334 27 25 0.0 4.8 0.00 0.00 0.00 41 1019.0
20260503235832 27 109 4.8 11.3 0.00 0.00 0.00 40 1019.1
20260503235329 27 6 4.8 8.0 0.00 0.00 0.00 41 1019.0
20260503234827 28 270 1.6 6.4 0.00 0.00 0.00 42 1019.0
20260503234324 28 21 3.2 12.9 0.00 0.00 0.00 41 1019.0
20260503233822 27 80 4.8 8.0 0.00 0.00 0.00 43 1019.2
20260503233318 27 315 9.7 12.9 0.00 0.00 0.00 43 1019.0
20260503232814 27 349 8.0 11.3 0.00 0.00 0.00 42 1019.3
20260503232312 27 342 6.4 9.7 0.00 0.00 0.00 45 1019.4
20260503231810 27 73 8.0 11.3 0.00 0.00 0.00 42 1019.4
20260503231306 27 339 8.0 11.3 0.00 0.00 0.00 42 1019.8
20260503230802 27 90 0.0 8.0 0.00 0.00 0.00 43 1019.7
20260503230300 28 325 1.6 9.7 0.00 0.00 0.00 44 1019.5
20260503225757 28 114 0.0 4.8 0.00 0.00 0.00 47 1019.7
20260503225252 27 0 0.0 9.7 0.00 0.00 0.00 43 1019.7
20260503224749 27 354 6.4 11.3 0.00 0.00 0.00 43 1019.8
20260503224247 27 317 9.7 12.9 0.00 0.00 0.00 42 1020.0
20260503223744 27 55 3.2 11.3 0.00 0.00 0.00 44 1020.2
20260503223242 27 0 0.0 8.0 0.00 0.00 0.00 45 1020.0
20260503222738 27 9 8.0 14.5 0.00 0.00 0.00 43 1020.1
20260503222236 27 90 0.0 12.9 0.00 0.00 0.00 43 1020.1
20260503221734 27 37 9.7 9.7 0.00 0.00 0.00 42 1020.2
20260503221231 27 24 3.2 8.0 0.00 0.00 0.00 41 1020.4
20260503220728 27 318 9.7 12.9 0.00 0.00 0.00 42 1020.3
20260503220225 27 318 8.0 12.9 0.00 0.00 0.00 44 1020.5
20260503215721 27 330 4.8 11.3 0.00 0.00 0.00 41 1020.3
20260503215219 26 306 6.4 6.4 0.00 0.00 0.00 42 1020.5
20260503214717 27 202 3.2 8.0 0.00 0.00 0.00 43 1020.3
20260503214213 26 341 3.2 6.4 0.00 0.00 0.00 44 1020.6
20260503213711 26 337 1.6 14.5 0.00 0.00 0.00 46 1020.6
20260503213208 26 263 0.0 17.7 0.00 0.00 0.00 47 1020.5
20260503212705 26 323 8.0 11.3 0.00 0.00 0.00 45 1020.5
20260503212203 27 90 0.0 6.4 0.00 0.00 0.00 49 1020.5
20260503211700 26 339 3.2 8.0 0.00 0.00 0.00 45 1020.6
20260503211155 26 341 8.0 11.3 0.00 0.00 0.00 44 1020.9
20260503210652 26 325 8.0 9.7 0.00 0.00 0.00 50 1021.0
20260503210149 25 315 8.0 8.0 0.00 0.00 0.00 48 1020.8
20260503205644 26 337 11.3 11.3 0.00 0.00 0.00 49 1021.3
20260503205141 25 327 8.0 11.3 0.00 0.00 0.00 47 1021.1
20260503204637 25 90 0.0 9.7 0.00 0.00 0.00 45 1021.4
20260503204135 25 305 3.2 14.5 0.00 0.00 0.00 49 1021.4
20260503203632 25 22 9.7 11.3 0.00 0.00 0.00 48 1021.3
20260503203130 25 120 0.0 11.3 0.00 0.00 0.00 47 1021.3
20260503202627 25 339 4.8 6.4 0.00 0.00 0.00 49 1021.6
20260503202125 25 345 8.0 14.5 0.00 0.00 0.00 48 1021.4
20260503201623 25 83 9.7 9.7 0.00 0.00 0.00 49 1021.5
20260503201120 25 129 8.0 8.0 0.00 0.00 0.00 49 1021.7
20260503200616 25 351 6.4 9.7 0.00 0.00 0.00 47 1021.7
20260503200112 25 80 4.8 9.7 0.00 0.00 0.00 47 1021.8
20260503195609 25 157 0.0 11.3 0.00 0.00 0.00 48 1021.7
20260503195106 24 348 11.3 14.5 0.00 0.00 0.00 50 1022.0
20260503194603 23 75 8.0 14.5 0.00 0.00 0.00 50 1022.2
20260503194058 23 331 8.0 16.1 0.00 0.00 0.00 49 1022.0
20260503193555 23 336 3.2 12.9 0.00 0.00 0.00 50 1022.1
20260503193050 23 283 0.0 11.3 0.00 0.00 0.00 49 1022.2
20260503192547 23 7 6.4 11.3 0.00 0.00 0.00 50 1022.3
20260503192043 24 90 3.2 12.9 0.00 0.00 0.00 50 1022.2
20260503191539 23 0 8.0 12.9 0.00 0.00 0.00 53 1022.4
20260503191036 23 334 4.8 11.3 0.00 0.00 0.00 55 1022.2
20260503190534 23 25 4.8 12.9 0.00 0.00 0.00 54 1022.2
20260503190031 23 321 6.4 14.5 0.00 0.00 0.00 51 1022.4
20260503185527 23 322 4.8 11.3 0.00 0.00 0.00 50 1022.4
20260503185027 23 343 8.0 9.7 0.00 0.00 0.00 54 1022.6
20260503184523 23 0 1.6 8.0 0.00 0.00 0.00 54 1022.3
20260503184020 23 294 0.0 8.0 0.00 0.00 0.00 53 1022.5
20260503183516 22 321 6.4 8.0 0.00 0.00 0.00 55 1022.5
20260503183013 22 354 6.4 14.5 0.00 0.00 0.00 55 1022.7
20260503182512 23 34 12.9 14.5 0.00 0.00 0.00 53 1022.9
20260503182009 22 262 1.6 11.3 0.00 0.00 0.00 55 1022.9
20260503181506 22 6 4.8 9.7 0.00 0.00 0.00 57 1022.9
20260503181002 22 319 3.2 12.9 0.00 0.00 0.00 56 1023.1
20260503180500 21 324 14.5 19.3 0.00 0.00 0.00 55 1022.9
20260503175957 22 225 3.2 8.0 0.00 0.00 0.00 60 1023.1
20260503175455 21 75 4.8 14.5 0.00 0.00 0.00 58 1023.1
20260503174951 21 41 6.4 11.3 0.00 0.00 0.00 57 1023.1
20260503174449 21 338 4.8 11.3 0.00 0.00 0.00 59 1023.1
20260503173944 21 297 9.7 11.3 0.00 0.00 0.00 58 1022.9
20260503173440 21 0 0.0 8.0 0.00 0.00 0.00 58 1023.0
20260503172937 20 327 9.7 16.1 0.00 0.00 0.00 58 1023.1
20260503172434 20 321 8.0 12.9 0.00 0.00 0.00 59 1023.1
20260503171931 20 29 3.2 11.3 0.00 0.00 0.00 59 1023.2
20260503171427 20 28 6.4 11.3 0.00 0.00 0.00 59 1023.1
20260503170925 20 0 0.0 8.0 0.00 0.00 0.00 60 1023.0
20260503170421 20 2 4.8 8.0 0.00 0.00 0.00 58 1023.3
20260503150814 16 74 1.6 6.4 0.00 0.00 0.00 75 1023.4
20260503150309 16 10 0.0 4.8 0.00 0.00 0.00 73 1023.5
20260503140234 9 352 0.0 1.6 0.00 0.00 0.00 99 1023.3
20260503131203 8 0 0.0 0.0 0.00 0.00 0.00 99 1023.0
20260503130701 8 99 0.0 1.6 0.00 0.00 0.00 99 1023.1
20260503130158 8 7 0.0 1.6 0.00 0.00 0.00 99 1023.0
20260503120124 8 346 0.0 1.6 0.00 0.00 0.00 96 1023.0
20260503110551 9 353 0.0 0.0 0.00 0.00 0.00 94 1023.2
20260503090438 10 8 0.0 1.6 0.00 0.00 0.00 92 1023.3
20260503081404 10 346 0.0 1.6 0.00 0.00 0.00 90 1023.7
20260503080901 10 0 1.6 1.6 0.00 0.00 0.00 92 1023.5
20260503080358 10 353 1.6 1.6 0.00 0.00 0.00 92 1023.6
20260503072834 11 0 1.6 1.6 0.00 0.00 0.00 90 1023.6
20260503072332 11 353 1.6 3.2 0.00 0.00 0.00 91 1023.7
20260503071827 11 0 0.0 1.6 0.00 0.00 0.00 90 1023.5
20260503071325 11 0 1.6 3.2 0.00 0.00 0.00 90 1023.7
20260503070821 10 353 0.0 1.6 0.00 0.00 0.00 90 1023.6
20260503070320 11 8 0.0 3.2 0.00 0.00 0.00 92 1023.3
20260503060238 11 345 0.0 0.0 0.00 0.00 0.00 89 1023.4
20260503054725 12 0 1.6 1.6 0.00 0.00 0.00 88 1023.4
20260503054222 12 8 0.0 0.0 0.00 0.00 0.00 87 1023.3
20260503053720 12 8 0.0 0.0 0.00 0.00 0.00 86 1023.2
20260503053219 12 0 0.0 1.6 0.00 0.00 0.00 88 1023.4
20260503052714 12 0 1.6 3.2 0.00 0.00 0.00 89 1023.4
20260503052211 12 8 0.0 1.6 0.00 0.00 0.00 88 1023.4
20260503051707 12 7 1.6 1.6 0.00 0.00 0.00 87 1023.3
20260503051205 12 20 0.0 1.6 0.00 0.00 0.00 87 1023.3
20260503050701 12 15 1.6 4.8 0.00 0.00 0.00 89 1023.2
20260503050157 12 15 0.0 3.2 0.00 0.00 0.00 88 1023.2
20260503045655 12 14 0.0 0.0 0.00 0.00 0.00 88 1023.2
20260503045152 13 23 0.0 1.6 0.00 0.00 0.00 87 1023.0
20260503044648 12 29 0.0 1.6 0.00 0.00 0.00 86 1022.8
20260503044146 13 7 0.0 0.0 0.00 0.00 0.00 86 1023.2
20260503043643 13 345 0.0 3.2 0.00 0.00 0.00 86 1022.9
20260503043140 13 23 1.6 1.6 0.00 0.00 0.00 85 1022.8
20260503042636 13 8 0.0 3.2 0.00 0.00 0.00 86 1022.8
20260503042132 13 103 0.0 1.6 0.00 0.00 0.00 86 1022.9
20260503041629 13 14 0.0 3.2 0.00 0.00 0.00 87 1022.9
20260503041127 13 345 1.6 1.6 0.00 0.00 0.00 86 1022.8
20260503040624 13 107 3.2 3.2 0.00 0.00 0.00 86 1022.7
20260503040121 13 15 0.0 0.0 0.00 0.00 0.00 87 1022.5
20260503035618 14 15 0.0 1.6 0.00 0.00 0.00 85 1022.6
20260503035116 14 90 0.0 0.0 0.00 0.00 0.00 84 1022.4
20260503034613 15 90 0.0 0.0 0.00 0.00 0.00 83 1022.1
20260503034110 15 0 0.0 0.0 0.00 0.00 0.00 83 1022.3
20260503033607 15 353 1.6 1.6 0.00 0.00 0.00 81 1022.3
20260503033105 15 29 1.6 3.2 0.00 0.00 0.00 77 1022.2
20260503032603 16 77 0.0 0.0 0.00 0.00 0.00 78 1022.2
20260503032101 16 0 1.6 1.6 0.00 0.00 0.00 74 1022.3
20260503031558 16 106 0.0 1.6 0.00 0.00 0.00 77 1022.2
20260503031055 17 166 0.0 1.6 0.00 0.00 0.00 73 1022.1
20260503030551 17 114 0.0 1.6 0.00 0.00 0.00 72 1022.2
20260503030048 17 106 0.0 1.6 0.00 0.00 0.00 69 1022.0
20260503025545 18 20 0.0 0.0 0.00 0.00 0.00 70 1022.0
20260503025043 18 106 0.0 3.2 0.00 0.00 0.00 68 1022.1
20260503024538 18 103 0.0 1.6 0.00 0.00 0.00 67 1021.8
20260503024036 19 74 0.0 3.2 0.00 0.00 0.00 64 1021.9
20260503023533 19 99 0.0 0.0 0.00 0.00 0.00 64 1022.0
20260503023031 20 105 0.0 3.2 0.00 0.00 0.00 61 1021.9
20260503022526 20 305 0.0 4.8 0.00 0.00 0.00 61 1021.8
20260503022021 20 99 0.0 1.6 0.00 0.00 0.00 60 1021.7
20260503021518 21 187 0.0 4.8 0.00 0.00 0.00 58 1021.7
20260503021015 22 165 0.0 4.8 0.00 0.00 0.00 53 1021.9
20260503020512 23 261 0.0 0.0 0.00 0.00 0.00 54 1021.6
20260503020009 22 70 4.8 6.4 0.00 0.00 0.00 55 1021.7
20260503015506 22 70 0.0 6.4 0.00 0.00 0.00 53 1021.6
20260503015002 23 66 0.0 4.8 0.00 0.00 0.00 52 1021.5
20260503014459 24 285 0.0 6.4 0.00 0.00 0.00 52 1021.8
20260503013957 23 348 0.0 4.8 0.00 0.00 0.00 53 1021.7
20260503013454 22 194 0.0 4.8 0.00 0.00 0.00 53 1021.7
20260503012951 23 180 0.0 3.2 0.00 0.00 0.00 53 1021.8
20260503012449 23 209 0.0 3.2 0.00 0.00 0.00 52 1022.0
20260503011944 22 166 0.0 8.0 0.00 0.00 0.00 52 1021.9
20260503011441 23 135 3.2 4.8 0.00 0.00 0.00 53 1022.0
20260503010939 23 336 3.2 3.2 0.00 0.00 0.00 53 1021.8
20260503010435 23 72 3.2 6.4 0.00 0.00 0.00 54 1022.0
20260503005933 23 337 3.2 4.8 0.00 0.00 0.00 51 1021.9
20260503005430 23 8 0.0 4.8 0.00 0.00 0.00 54 1021.9
20260503004926 23 151 0.0 8.0 0.00 0.00 0.00 54 1022.0
20260503004423 23 144 3.2 4.8 0.00 0.00 0.00 52 1021.9
20260503003921 23 0 0.0 6.4 0.00 0.00 0.00 54 1021.9
20260503003418 23 46 8.0 8.0 0.00 0.00 0.00 52 1022.0
20260503002915 23 354 1.6 11.3 0.00 0.00 0.00 53 1022.1
20260503002412 23 90 0.0 6.4 0.00 0.00 0.00 54 1022.0